Chamberlain, SD

5:57 AM CDT on June 23, 2017 (GMT -0500)
Chamberlain

Weather History for K9V9 - December, 2012

Change the Weather History Date:

Thursday, December 20, 2012

  Actual Average Record
Temperature  
Mean Temperature 14 °F -  
Max Temperature 21 °F 29 °F 52 °F (2003)
Min Temperature 3 °F 10 °F -4 °F (2008)
Degree Days  
Heating Degree Days 50    
Moisture  
Dew Point 8 °F    
Average Humidity 79    
Maximum Humidity 92    
Minimum Humidity 63    
Precipitation  
Precipitation 0.00 in - - ()
Sea Level Pressure  
Sea Level Pressure 30.22 in    
Wind  
Wind Speed 10 mph (NW)    
Max Wind Speed 16 mph    
Max Gust Speed 22 mph    
Averages and records for this station are not official NWS values.
T = Trace of Precipitation, MM = Missing Value Source: NWS Daily Summary

Daily Weather History Graph

Daily Weather History Graph

Search for Another Location

Airport or City:

Trip Planner

Search our weather history database for the weather conditions in past years. The results will help you decide how hot, cold, wet, or windy it might be!

Date:

Astronomy

Dec. 20, 2012 Rise Set
Actual Time 8:07 AM CST 5:02 PM CST
Civil Twilight 7:34 AM CST 5:35 PM CST
Nautical Twilight 6:58 AM CST 6:11 PM CST
Astronomical Twilight 6:23 AM CST 6:47 PM CST
Moon 12:30 PM CST (12/20) 12:45 AM CST (12/20)
Length of Visible Light 10h 00m
Length of Day
8h 54m
First Quarter, 55% of the Moon is Illuminated
Dec 20
First Quarter
Dec 28
Full
Jan 4
Last Quarter
Jan 11
New
Jan 18
First Quarter

Hourly Weather History & Observations

Time (CST) Temp. Windchill Dew Point Humidity Pressure Visibility Wind Dir Wind Speed Gust Speed Precip Events Conditions
12:52 AM 15.1 °F 2.5 °F 9.0 °F 77% 30.17 in - North 10.4 mph - N/A   Unknown
1:52 AM 15.1 °F -0.1 °F 8.1 °F 74% 30.17 in - North 15.0 mph - N/A   Unknown
2:52 AM 14.0 °F -1.4 °F 8.1 °F 77% 30.18 in - NNW 15.0 mph 20.7 mph N/A   Unknown
3:52 AM 12.0 °F -4.0 °F 7.0 °F 80% 30.19 in - NW 15.0 mph - N/A   Unknown
4:52 AM 12.0 °F -3.4 °F 7.0 °F 80% 30.20 in - WNW 13.8 mph - N/A   Unknown
5:52 AM 12.9 °F -3.4 °F 8.1 °F 81% 30.19 in - NW 16.1 mph 21.9 mph N/A   Unknown
6:52 AM 14.0 °F 2.0 °F 10.0 °F 84% 30.22 in - NW 9.2 mph - N/A   Unknown
7:52 AM 14.0 °F -2.0 °F 10.0 °F 84% 30.24 in - NW 16.1 mph - N/A   Unknown
8:52 AM 12.9 °F -1.6 °F 10.0 °F 88% 30.25 in - NW 12.7 mph - N/A   Unknown
9:52 AM 12.9 °F -0.2 °F 10.0 °F 88% 30.25 in - WNW 10.4 mph - N/A   Unknown
10:52 AM 12.9 °F -0.2 °F 10.9 °F 92% 30.26 in - WNW 10.4 mph - N/A   Unknown
11:52 AM 14.0 °F 2.0 °F 10.0 °F 84% 30.25 in - WNW 9.2 mph - N/A   Unknown
12:52 PM 16.0 °F 6.3 °F 9.0 °F 74% 30.23 in - NW 6.9 mph - N/A   Unknown
1:52 PM 19.0 °F 10.0 °F 10.0 °F 68% 30.21 in - WNW 6.9 mph - N/A   Unknown
2:52 PM 21.9 °F 13.4 °F 10.9 °F 63% 30.21 in - NW 6.9 mph - N/A   Unknown
3:52 PM 19.9 °F - 10.9 °F 68% 30.20 in - Calm Calm - N/A   Unknown
4:52 PM 19.9 °F - 10.9 °F 68% 30.21 in - Calm Calm - N/A   Unknown
5:52 PM 12.0 °F - 6.1 °F 77% 30.22 in - Calm Calm - N/A   Unknown
6:52 PM 14.0 °F - 9.0 °F 80% 30.22 in - Calm Calm - N/A   Unknown
7:52 PM 14.0 °F 8.2 °F 8.1 °F 77% 30.23 in - ESE 3.5 mph - N/A   Unknown
8:52 PM 10.0 °F - 7.0 °F 87% 30.24 in - Calm Calm - N/A   Unknown
9:52 PM 8.1 °F 1.4 °F 3.9 °F 83% 30.26 in - ESE 3.5 mph - N/A   Unknown
10:52 PM 14.0 °F 6.5 °F 9.0 °F 80% 30.26 in - ESE 4.6 mph - N/A   Unknown
11:52 PM 3.0 °F - -2.0 °F 80% 30.29 in - Calm Calm - N/A   Unknown